Погода в Квасниковке

Россия / Саратовская область     51°22′33″N   46°01′49″E
темп.,
°C
ветер,
м/с
пор.,
м/с
влажн.,
%
обл.,
%
осадки,
мм/ч
давл.,
гПа
погр.,
м
13 апреля, вт
вт1301:00+8в35725 0.0 103145
04:00+7св337380 0.0 103111
07:00+6ссв44735 0.0 103222
10:00+8всв34656 0.0 103296
13:00+12вюв56485 0.0 1031254
16:00+13вюв574444 0.0 1029275
19:00+12вюв4551100 0.0 102867
22:00+9в46645 0.0 102960
14 апреля, ср
ср1401:00+8в35695 0.0 102846
04:00+7св33721 0.0 102716
07:00+6ссв44750 0.0 102632
10:00+9в45650 0.0 1026132
13:00+11вюв57500 0.0 1024306
16:00+12вюв57460 0.0 1022343
19:00+12вюв445225 0.0 102181
22:00+10в446888 0.0 102146
15 апреля, чт
чт1501:00+8св33775 0.0 102015
04:00+8ссв4482100 0.0 102018
07:00+7св4485100 0.0 101942
10:00+9всв457445 0.0 101896
13:00+13в4556100 0.0 1017215
16:00+14вюв454465 0.0 1016384
19:00+14юв3447100 0.0 101538
22:00
16 апреля, пт
пт1601:00+10св2266100 0.0 101512
04:00+9св3372100 0.0 101515
07:00+8св4474100 0.0 101527
10:00+9всв3467100 0.0 101594
13:00+11всв335997 0.0 1015192
16:00+13св3353100 0.0 1014313
19:00+14св445263 0.0 101454
22:00+11св336014 0.0 101613
17 апреля, сб
сб1701:00+10с337123 0.0 101612
04:00+8ссв34785 0.0 101731
07:00+7ссв579496 0.1 1017102
10:00+8всв5686100 0.1 1018156
13:00+11всв5773100 0.0 1018256
16:00+12св81065100 0.1 1017404
19:00+10в478092 1.9 1018272
22:00+9св61057100 3.4 1020241